Location: Unspecified
(17.6330°N, 0.0000°E)
Time: 18:32:45
(UTC+00:00)

SR - All Passes

Search period start: 24 June 2019 00:00
Search period end: 04 July 2019 00:00
Orbit: 582 x 874 km, 66.7° (Epoch: 24 June)

Date Brightness Start Highest point End Pass type
(mag) Time Alt. Az. Time Alt. Az. Time Alt. Az.
24 Jun - 01:24:28 10° SSE 01:27:48 22° ESE 01:31:03 10° ENE visible
24 Jun - 03:06:51 10° WSW 03:09:36 17° WNW 03:12:20 10° NNW visible
24 Jun - 11:57:58 10° NNE 12:01:47 20° ENE 12:05:45 10° ESE daylight
24 Jun - 13:38:55 10° NW 13:43:42 34° WSW 13:48:47 10° S daylight
25 Jun - 02:15:49 10° SW 02:19:57 45° WNW 02:24:01 10° N visible
25 Jun - 12:48:50 10° NNW 12:54:10 81° WSW 12:59:52 10° SSE daylight
26 Jun - 01:26:09 10° S 01:30:25 57° ESE 01:34:34 10° NNE visible
26 Jun - 11:59:34 10° N 12:04:35 43° ENE 12:09:56 10° SE daylight
26 Jun - 13:43:15 10° WNW 13:46:23 15° WSW 13:49:36 10° SW daylight
27 Jun - 00:37:47 10° SSE 00:40:56 20° ESE 00:44:01 10° ENE night (unlit)
27 Jun - 02:19:46 10° WSW 02:22:43 18° WNW 02:25:39 10° NNW visible
27 Jun - 11:11:16 10° NNE 11:14:55 19° ENE 11:18:43 10° ESE daylight
27 Jun - 12:51:58 10° NW 12:56:52 36° WSW 13:02:04 10° S daylight
28 Jun - 01:28:54 10° SW 01:33:05 50° WNW 01:37:11 10° N visible
28 Jun - 12:01:58 10° NNW 12:07:19 87° WSW 12:13:03 10° SSE daylight
29 Jun - 00:39:21 10° S 00:43:33 52° ESE 00:47:39 10° NE night (unlit)
29 Jun - 11:12:45 10° N 11:17:44 40° ENE 11:23:02 10° SE daylight
29 Jun - 12:56:08 10° WNW 12:59:32 17° WSW 13:03:05 10° SW daylight
29 Jun - 23:51:08 10° SSE 23:54:04 18° ESE 23:56:57 10° ENE night (unlit)
30 Jun - 01:32:43 10° WSW 01:35:50 20° WNW 01:38:56 10° NNW visible
30 Jun - 10:24:34 10° NNE 10:28:03 17° ENE 10:31:41 10° ESE daylight
30 Jun - 12:05:01 10° NW 12:10:01 39° WSW 12:15:21 10° S daylight
01 Jul - 00:41:59 10° SSW 00:46:12 55° WNW 00:50:20 10° N night (unlit)
01 Jul - 11:15:06 10° NNW 11:20:29 87° ENE 11:26:14 10° SSE daylight
01 Jul - 23:52:32 10° S 23:56:41 47° ESE 00:00:44 10° NE night (unlit)
02 Jul - 10:25:58 10° N 10:30:53 37° ENE 10:36:07 10° SE daylight
02 Jul - 12:09:02 10° WNW 12:12:43 18° WSW 12:16:32 10° SSW daylight
02 Jul - 23:04:31 10° SSE 23:07:12 16° ESE 23:09:52 10° ENE night (unlit)
03 Jul - 00:45:40 10° WSW 00:48:57 21° WNW 00:52:12 10° NNW night (unlit)
03 Jul - 09:37:55 10° NNE 09:41:12 16° ENE 09:44:36 10° ESE daylight
03 Jul - 11:18:05 10° NW 11:23:12 43° WSW 11:28:36 10° S daylight
